Monday, September 01, 2014
07:35 UTC
  |  Log In   |  Register Free
Airport Search:

Farmington Regional Airport
(KFAM)

Farmington Regional Airport Diagram
No Airport Diagram Available

FAA data valid effective July 24, 2014 until September 18, 2014 (unless otherwise noted).

 
 
 
 
 
 
 
 
 
 
 
 
 
 

Current Aviation Weather for Farmington Regional Airport (KFAM)

The most recent METAR observation for KFAM was updated at: 0655 UTC
METAR Summary (Translated METAR)
KFAM
010655Z AUTO 20008KT 10SM CLR 23/21 A2995 RMK AO1
KSAR
(41.6 nm NE from KFAM)
010655Z AUTO 19006KT 10SM CLR 24/22 A2993 RMK AO2 T02360223
TAF
No TAF information found within 50 nm of KFAM
  Airport Weather Conditions for KFAM

 Current Weather at FAM
73° F
Fair
South winds at 9.2 mph
FAM NOAA Radar

Pressure: 29.95 in
Humidity: 89%
Wind: South at 9.2 MPH (8 KT)
Dew Point: 69.8°F
Visibility: 10.00 mi


Airport Weather Forecast for KFAM

Translated METAR and TAF for KFAM
Translated METAR for KFAM (0729 UTC 01 September 2014)
found at http://aviationweather.gov/adds/metars/
 
METAR text: KFAM 010715Z AUTO 22007KT 9SM CLR 23/21 A2995 RMK AO1
Conditions at: KFAM (FARMINGTON , MO, US) observed 0715 UTC 01 September 2014
Temperature: 23.0°C (73°F)
Dewpoint: 21.0°C (70°F) [RH = 89%]
Pressure (altimeter): 29.95 inches Hg (1014.3 mb)
Winds: from the SW (220 degrees) at 8 MPH (7 knots; 3.6 m/s)
Visibility: 9 miles (14 km)
Ceiling: at least 12,000 feet AGL
Clouds: sky clear below 12,000 feet AGL
Weather: automated observation with no human augmentation;
there may or may not be significant weather present at this time
Translated TAF for KFAM

There is no translated TAF available for this airport

Find All Airport Services Find A Hotel Find A Rental Car Find A Golf Course Find A Restaurant $100 Hamburger



FBO's on the Field
FBO Company Facility Photos Services Transportation Aviation Fuel Prices: Prices include tax
Catering Weather Repair Courtesy Rental Type 100LL JetA JetA+ MOGAS 8087
 
Farmington Regional Airport

This FBO has not yet been rated
FS:Shell
Last Updated: Jul-25
Login to update fuel prices
SS:
Contact Farmington Regional AirportMore FBO Information
 
Add another FBO Facility Photos Catering Weather Repair Courtesy Rental Type 100LL JetA JetA+ MOGAS 8087
Services Transportation Aviation Fuel Prices: Prices include tax


GlobalAir.com Airport Resource Center model-print
model-print
model-print
model-print